Theta_e
315 315 318 322 323 324 325 325 324 324 325 325 324 323 322 321 320 319 320 321 322 321 320 320 320 319 320 321 321 321 321 322 322 323 323 323 323 323 323 323 324 323 323 323 322 321 322 323 322 321 320 319 319 319 320 319 319 319 317 315 315 313 312 310 310 311 310 310 307 307 309 305 309 309 311 311 310 307 304 302 301 301 300 299 300
310 312 314 317 321 322 323 324 322 322 323 324 324 324 324 322 321 321 321 321 322 322 321 321 322 322 321 321 322 322 321 320 322 322 323 323 322 323 323 323 323 323 322 323 323 322 322 322 322 323 321 320 320 320 319 317 318 317 316 312 312 314 313 311 311 313 307 306 305 304 304 306 307 308 309 310 308 304 302 301 300 301 300 300 300
308 311 313 315 318 321 322 323 323 324 324 324 325 324 324 323 323 322 322 321 321 322 322 321 322 323 323 322 322 321 322 322 323 322 322 322 323 323 323 323 324 324 323 321 322 322 322 322 323 323 322 321 319 319 319 318 318 318 316 317 313 308 311 310 313 315 309 303 301 304 301 303 306 308 309 311 306 302 300 300 299 300 300 300 299
307 308 311 314 316 320 320 321 322 323 323 323 324 324 325 324 324 323 322 322 322 322 320 322 322 323 323 321 321 322 321 320 321 319 320 321 322 323 322 323 323 324 323 322 322 322 322 322 322 322 323 321 321 320 319 319 319 318 317 317 317 313 309 312 312 314 311 309 306 306 300 298 300 305 308 310 304 302 300 299 299 300 299 297 298
307 308 309 312 314 317 320 321 322 322 323 323 324 324 326 325 325 325 324 323 323 321 321 322 321 318 319 317 318 318 319 318 320 321 321 321 321 322 323 322 322 323 324 324 322 322 322 321 321 322 322 322 321 321 321 321 320 320 319 317 317 317 313 309 310 312 312 315 309 303 300 299 300 299 305 307 302 300 298 298 298 298 298 297 297
308 308 309 311 314 316 319 321 321 322 322 324 325 325 325 326 325 325 325 324 324 323 322 322 321 321 320 319 318 319 319 320 320 321 321 321 321 323 322 323 323 323 324 324 323 321 322 321 321 321 321 322 322 322 322 321 320 319 319 319 317 317 316 310 309 308 312 313 312 310 307 303 300 298 304 302 302 302 298 298 298 298 297 297 296
305 307 309 309 313 315 317 319 321 321 323 324 324 325 325 326 326 326 326 325 325 325 323 322 322 322 321 321 320 320 319 320 322 323 323 323 323 322 323 323 324 324 323 324 324 323 323 323 322 321 321 321 321 321 322 321 321 320 320 318 319 317 315 313 313 314 311 313 312 312 308 302 301 304 302 297 299 302 300 299 299 296 295 295 295
304 305 306 308 311 314 315 318 320 321 323 323 323 324 324 324 325 325 326 324 326 326 324 323 323 323 322 322 321 321 321 321 322 323 322 321 322 323 323 323 323 325 325 324 325 324 323 323 323 322 322 322 321 321 321 322 321 320 319 320 320 319 318 317 316 314 315 314 313 313 311 307 303 300 299 303 298 297 298 299 296 294 294 293 294
301 303 304 306 308 313 315 316 319 321 321 321 322 323 324 324 324 324 325 324 324 325 325 324 324 324 324 323 322 322 323 323 318 317 319 318 321 321 322 323 323 324 325 325 325 326 323 323 324 323 323 322 320 322 322 322 322 322 320 319 320 319 319 319 318 316 317 316 312 313 315 314 310 309 305 301 297 295 295 294 295 292 292 292 293
299 301 302 304 307 311 314 316 317 319 321 321 321 322 322 323 322 322 324 325 324 324 324 325 324 323 324 323 322 323 321 321 317 320 318 318 320 321 321 322 323 323 323 324 325 326 326 324 325 326 325 325 321 323 323 323 323 323 323 322 322 321 320 319 319 319 317 318 316 316 313 312 311 309 306 303 301 301 298 294 294 292 291 292 293
299 300 300 302 305 309 312 314 316 317 316 316 318 319 320 321 322 321 323 324 323 323 323 324 324 324 324 324 323 322 322 321 320 320 319 318 320 320 321 321 321 322 322 323 323 325 326 324 325 326 327 326 324 324 324 324 324 324 324 323 322 322 321 320 318 318 318 317 316 315 314 314 312 311 310 306 307 298 296 295 296 293 294 293 293
299 299 300 300 300 304 305 310 312 313 313 315 316 316 317 319 320 320 321 321 323 323 322 323 323 324 324 324 323 323 322 321 321 320 320 320 320 320 319 320 322 323 322 322 323 323 323 325 323 326 326 327 327 327 327 326 326 325 325 324 323 322 323 320 320 319 318 317 317 316 314 314 313 313 311 309 307 305 302 299 297 294 292 291 291
298 298 299 299 300 301 303 307 309 310 313 315 316 317 317 318 318 319 320 320 322 322 322 322 322 323 323 323 323 323 322 322 321 320 320 320 320 319 318 321 323 323 324 324 324 322 322 323 324 325 326 327 328 328 328 327 327 326 325 324 323 322 322 321 320 320 319 318 318 317 316 313 313 313 312 310 308 306 303 299 296 293 292 291 291
299 299 299 299 300 300 302 305 308 310 311 314 315 315 316 317 317 317 319 319 319 319 321 321 322 323 323 323 323 322 321 321 321 321 320 320 320 319 320 321 321 322 323 323 325 323 322 323 323 324 325 325 325 327 328 327 326 326 325 324 323 324 323 322 321 320 320 319 319 317 315 314 314 313 312 310 308 304 300 301 297 292 291 290 291
296 297 298 299 300 300 301 302 304 307 309 311 313 314 315 316 316 316 317 316 317 318 319 320 322 322 322 322 322 322 321 320 321 321 320 318 318 319 319 319 320 320 320 321 320 322 322 322 323 324 324 325 326 326 326 327 326 325 324 324 323 324 323 322 321 321 319 318 317 317 315 315 314 311 311 310 309 308 307 303 299 295 289 287 288
293 294 296 296 297 296 296 297 299 301 304 308 310 312 313 315 315 316 317 317 316 316 318 320 321 321 320 320 320 319 317 319 318 317 319 319 319 318 319 319 320 320 319 318 319 320 320 321 321 322 323 323 325 325 326 325 324 324 323 323 323 323 323 321 321 320 320 319 317 317 316 316 316 314 312 311 309 309 308 303 302 301 296 289 287
291 293 294 295 293 293 296 297 298 299 300 304 308 310 312 313 313 314 314 312 313 314 317 318 317 315 316 318 318 318 318 319 320 319 318 317 318 318 319 319 318 318 318 317 318 318 319 320 320 320 321 321 322 323 324 324 323 321 320 321 321 321 319 320 320 319 318 317 316 316 317 316 312 310 310 310 309 307 307 304 304 303 300 297 288
291 291 291 291 292 294 295 295 296 298 298 299 302 301 304 306 309 311 309 310 310 310 311 309 311 312 313 315 317 318 320 319 319 318 317 316 316 316 315 315 315 316 317 317 317 317 317 314 320 320 320 321 321 322 322 322 321 321 322 322 322 321 320 319 318 319 318 318 317 315 314 312 309 309 310 310 308 308 306 303 302 302 301 300 294
292 293 293 294 294 294 295 296 296 294 295 294 294 294 295 296 298 304 307 307 306 304 303 305 309 314 315 315 316 316 316 317 316 316 315 316 315 314 314 316 313 311 312 313 314 315 316 317 318 319 319 321 322 322 321 321 319 318 317 318 318 318 318 318 317 317 319 315 312 312 310 310 306 307 306 305 304 305 306 303 300 299 297 299 297
293 294 295 295 295 295 295 295 293 294 294 294 293 293 295 297 297 299 299 299 300 302 302 306 307 309 308 306 308 311 312 314 312 312 312 313 313 312 312 307 311 307 310 312 312 314 314 314 314 317 318 319 320 320 320 321 320 319 318 311 310 312 312 312 312 307 309 309 306 304 303 305 303 301 302 301 299 299 301 300 299 297 295 294 293
293 294 295 295 295 294 292 291 293 291 292 292 293 295 295 294 295 295 298 296 297 299 299 302 299 301 302 305 305 305 305 305 306 305 306 305 305 303 306 307 303 306 308 309 311 313 315 315 316 315 317 317 317 318 317 316 316 315 314 313 311 308 310 311 310 308 305 306 307 307 306 304 300 299 295 295 296 298 296 297 296 294 294 292 292
293 293 292 293 292 291 291 290 289 292 293 294 293 293 294 295 294 295 295 295 296 296 298 298 297 300 302 302 303 302 303 303 305 305 306 305 304 303 303 300 302 302 300 308 310 312 310 313 314 315 315 315 315 318 317 315 313 311 309 310 310 309 309 308 302 304 303 304 304 305 302 299 296 299 297 296 296 296 294 293 291 292 292 290 289
294 293 292 291 290 291 291 292 291 291 292 290 290 292 293 293 294 293 295 295 294 296 295 295 297 298 299 298 297 298 298 299 301 300 299 299 298 297 297 299 299 298 298 301 303 304 308 308 308 308 310 309 310 307 306 307 308 309 310 309 307 308 308 308 306 306 306 304 302 302 303 298 296 298 297 297 296 294 292 292 291 290 291 291 289
291 290 289 289 288 289 291 292 292 291 290 291 292 291 292 291 293 292 294 293 291 292 293 295 295 295 294 294 294 290 295 295 298 296 298 297 298 298 297 300 300 300 303 301 302 304 303 304 304 304 303 304 304 303 304 304 308 308 309 310 308 307 307 307 307 307 305 302 302 301 300 297 295 296 296 296 294 293 292 292 292 289 289 289 289
292 291 290 289 288 290 292 292 292 291 289 290 292 293 292 293 291 293 292 292 292 291 294 293 291 291 290 291 288 288 291 292 295 294 296 294 295 295 295 298 298 301 301 300 300 299 302 303 304 304 305 303 303 304 304 302 302 302 303 305 306 305 304 305 305 305 300 301 301 301 301 296 294 295 294 292 291 290 289 290 289 289 288 289 287
292 291 290 291 291 289 289 290 292 291 292 292 292 292 292 291 292 290 292 289 290 289 289 288 289 293 291 290 289 289 291 292 293 293 293 292 292 294 295 294 297 302 298 297 298 296 299 300 300 300 300 301 300 300 301 301 301 300 300 300 300 301 301 302 301 300 300 300 301 301 299 296 295 295 295 293 290 290 289 289 290 288 287 286 286
291 291 290 289 289 291 291 292 293 292 290 292 292 293 291 291 292 291 291 293 292 291 289 292 288 292 289 290 290 292 292 292 292 293 293 295 296 294 296 298 293 296 297 296 294 295 293 296 296 296 297 298 299 298 298 298 298 297 298 298 297 296 296 295 295 296 295 295 295 295 294 293 294 294 295 293 291 289 289 288 288 287 286 285 283
288 288 290 292 293 290 290 291 290 292 291 291 291 291 293 293 294 293 292 293 295 294 293 293 290 290 293 291 294 293 294 294 294 295 295 295 295 295 294 292 292 297 295 295 296 296 293 293 294 295 295 295 295 295 295 295 295 296 295 295 294 295 294 293 293 293 293 293 293 292 292 292 292 292 292 291 290 290 289 288 287 285 285 284 282
290 292 292 292 292 292 292 291 291 289 290 290 290 290 289 290 290 293 293 294 296 298 297 296 293 294 294 294 294 295 295 296 295 296 294 294 293 292 290 290 292 291 291 291 291 292 292 293 292 292 293 293 294 295 295 295 295 295 295 295 295 293 292 292 292 291 291 291 291 291 291 291 290 289 289 290 290 290 289 288 285 285 284 283 281
293 293 293 293 293 292 292 292 290 290 291 291 291 291 292 293 293 293 294 294 296 298 298 298 297 297 295 295 294 294 295 293 293 293 292 290 289 288 289 289 290 289 289 289 290 290 291 292 292 291 291 292 292 294 292 292 294 294 294 294 293 291 291 291 291 291 290 289 290 289 289 288 288 288 288 288 289 289 289 290 288 285 284 282 280
292 292 292 292 291 291 290 291 292 291 291 293 294 293 292 292 293 293 295 296 297 298 298 298 298 297 295 295 295 294 292 292 293 291 289 289 289 288 288 288 288 288 289 289 289 290 289 289 290 290 290 290 290 292 291 294 294 295 294 293 293 291 291 290 290 291 291 289 288 288 288 287 286 286 287 287 289 289 288 288 288 287 286 284 281
293 292 292 290 290 290 291 292 293 293 293 293 293 293 291 294 294 293 294 295 297 297 298 297 297 296 296 296 295 293 292 291 290 290 289 288 288 288 288 288 288 288 288 287 288 288 288 289 289 289 289 289 289 289 293 293 294 294 293 293 291 291 290 290 289 290 289 288 288 287 285 286 286 287 286 286 287 288 288 288 287 286 286 287 286
294 293 292 291 291 292 293 293 294 295 294 294 295 293 294 295 295 294 293 295 296 297 297 297 296 296 296 295 293 292 292 290 290 289 288 288 288 288 288 288 288 287 287 288 288 288 288 288 289 289 289 288 288 290 292 293 293 294 294 292 289 290 290 288 288 288 288 287 286 286 285 285 285 285 284 283 283 284 286 287 287 287 287 287 288
293 292 292 292 291 292 293 294 295 296 296 296 294 296 297 295 293 291 293 294 295 295 296 295 295 296 295 294 292 291 291 290 289 288 288 288 288 289 288 287 287 288 288 288 288 288 288 288 289 289 289 289 289 289 292 292 292 293 293 292 289 289 289 288 288 287 286 286 286 286 286 284 282 282 283 283 283 283 283 283 283 282 282 284 287
292 291 291 290 291 292 293 293 293 294 292 291 292 293 290 290 291 292 292 293 294 295 295 294 294 294 293 293 292 291 290 289 288 288 288 288 288 288 287 287 288 288 288 288 288 287 288 288 288 287 288 288 288 289 291 292 292 293 293 292 287 287 286 286 286 286 286 286 286 286 285 284 282 283 284 284 284 283 282 281 280 280 281 280 281
293 292 293 293 291 291 293 294 295 293 291 293 294 292 291 290 289 291 290 291 293 294 294 293 293 293 293 292 292 291 290 289 288 288 288 288 287 287 287 287 287 287 286 287 287 287 287 287 287 287 287 287 286 289 290 291 292 292 293 288 286 286 285 285 285 285 285 285 285 285 284 283 283 283 284 285 285 283 281 280 280 277 275 276 278
296 294 294 295 294 293 293 294 293 293 293 293 293 291 292 289 289 289 289 291 292 293 292 292 292 293 292 292 292 291 290 289 288 288 288 288 287 287 287 287 287 287 286 287 286 286 286 286 286 286 286 286 286 287 289 290 291 292 291 286 286 286 285 284 284 284 284 284 283 283 283 282 282 282 284 286 286 284 281 280 280 277 274 274 277
296 295 294 293 292 292 291 292 291 292 294 294 291 291 291 290 289 288 289 290 290 292 292 292 292 292 292 292 292 291 289 289 288 288 288 288 288 288 287 287 287 287 286 286 286 286 286 286 286 286 286 286 286 286 288 290 290 291 288 285 284 283 281 280 280 281 281 281 281 283 283 282 282 282 284 286 287 284 282 281 279 279 277 276 277
296 296 295 291 291 291 292 290 289 291 293 290 290 290 291 291 290 289 289 290 290 291 291 291 292 292 292 292 291 291 290 289 288 288 288 287 287 287 287 287 287 287 286 286 286 286 285 285 285 285 285 286 286 285 287 289 290 291 289 286 285 284 283 282 279 281 282 282 282 283 284 283 283 283 285 286 287 285 282 281 280 279 278 277 277
296 296 294 292 290 288 288 289 291 293 293 290 289 291 291 292 290 289 289 290 291 291 291 291 292 292 292 291 291 290 289 289 288 288 288 288 287 287 286 286 286 287 286 286 286 286 285 285 285 285 285 285 285 285 285 289 290 290 290 285 284 282 281 280 279 281 279 280 280 281 282 285 285 285 286 287 287 287 283 282 280 279 278 278 278
298 298 292 289 289 291 292 292 293 294 291 289 290 291 291 291 289 289 289 292 291 290 290 291 291 291 291 291 290 290 289 289 289 288 288 287 287 287 286 286 286 286 286 285 285 285 285 285 285 285 285 285 285 285 285 288 289 290 290 287 284 284 283 281 280 279 280 281 281 281 281 283 285 286 286 286 287 288 286 282 281 280 280 279 279
295 293 290 289 287 289 289 289 289 289 289 289 290 291 291 289 288 289 292 291 288 289 290 291 291 291 291 290 289 289 289 289 288 287 287 287 287 286 286 286 286 286 285 285 285 285 285 285 285 285 285 285 285 285 284 286 288 289 290 290 286 285 285 284 282 280 278 279 280 280 279 282 284 286 286 286 287 287 288 284 281 283 283 283 277
296 292 288 290 290 290 290 291 290 287 288 288 289 290 290 289 289 291 290 287 288 288 290 290 290 290 289 289 288 288 288 288 288 287 287 287 286 286 286 286 286 285 285 285 284 284 284 284 284 284 284 284 284 285 285 284 286 288 289 290 289 286 287 282 280 278 277 278 276 276 277 282 283 285 286 286 287 287 287 286 286 285 284 285 282
292 292 290 288 291 291 291 290 286 286 287 288 289 290 289 289 290 288 286 286 287 288 289 289 288 289 288 288 288 288 288 287 287 287 287 286 286 286 286 286 286 286 285 284 284 284 284 283 283 283 283 283 284 284 283 284 283 286 288 289 289 290 288 279 277 278 276 276 275 276 277 282 283 284 285 286 287 287 284 287 288 287 286 284 276
290 290 287 287 290 290 291 289 285 285 287 288 289 290 290 289 288 285 287 286 287 288 288 288 288 288 288 288 287 287 287 287 287 287 287 286 286 286 285 285 285 285 285 284 283 283 283 283 283 283 282 282 282 280 277 279 284 284 286 287 288 289 289 288 278 275 276 275 280 282 282 283 283 284 285 285 286 286 287 287 287 287 284 278 275
286 287 288 289 289 289 289 289 286 285 286 287 288 289 289 290 286 286 286 287 287 288 288 288 288 288 287 287 287 287 287 287 287 287 287 287 286 286 286 285 285 285 285 284 283 283 283 283 282 281 278 275 274 273 273 273 278 280 282 284 286 287 286 286 283 279 281 282 283 284 284 284 284 283 281 278 278 280 284 285 286 285 280 278 276
288 290 289 288 287 288 288 288 288 283 283 284 286 286 288 284 285 286 286 287 287 288 288 287 287 287 287 287 287 287 287 286 286 286 286 286 286 286 285 285 285 284 284 284 283 283 282 282 280 275 272 272 271 271 272 273 271 271 274 275 275 276 282 283 279 276 279 277 279 280 279 283 282 283 282 281 281 280 279 280 279 280 280 279 277
285 285 284 285 286 288 288 287 287 283 283 284 284 285 283 284 284 286 287 287 287 288 288 287 287 287 287 287 287 284 285 286 286 286 286 285 286 286 285 285 285 284 284 283 283 282 281 279 276 272 269 271 270 269 271 271 273 272 273 271 271 274 272 272 274 275 274 273 274 279 278 274 274 274 273 273 273 273 275 276 276 277 279 280 280
284 283 282 287 287 287 287 286 287 283 282 282 281 280 280 283 284 285 287 287 287 286 287 287 287 287 287 286 286 286 286 286 286 285 285 285 285 285 285 283 282 282 284 283 282 280 277 275 273 272 271 271 270 270 273 278 276 280 276 273 272 274 273 271 277 282 275 271 272 272 271 272 271 273 272 272 271 272 273 274 273 275 274 275 277
282 281 281 283 283 286 285 284 283 279 280 280 279 278 279 281 283 285 286 287 286 286 285 285 285 285 285 284 284 285 285 285 285 284 282 280 279 283 283 282 277 279 282 282 281 273 273 272 272 271 273 272 271 271 281 285 285 285 285 284 283 282 282 278 280 284 279 272 271 271 270 270 270 270 271 271 272 272 272 272 272 276 274 274 276
279 280 281 282 282 280 280 281 279 276 277 277 277 276 278 279 281 283 285 286 285 285 284 283 283 283 282 283 283 283 283 284 283 282 281 279 277 276 283 282 281 280 282 283 283 283 281 279 274 271 274 281 282 284 284 283 284 284 285 286 286 286 286 286 286 278 272 272 271 270 270 270 270 269 270 272 271 271 272 271 272 271 272 273 275
Wind_Speed
12 9 10 12 13 12 12 11 11 11 12 12 12 13 13 13 11 12 10 9 10 9 9 10 10 8 8 10 11 9 9 9 9 8 8 9 9 9 9 9 9 9 9 9 9 9 8 7 8 7 7 7 8 9 10 9 9 8 7 6 7 6 6 4 3 4 4 2 3 3 5 3 3 3 4 3 5 5 4 6 5 6 5 6 5
3 5 8 8 10 11 10 10 10 12 12 12 15 15 12 12 13 12 10 11 12 12 11 11 11 11 11 11 10 9 9 9 10 9 10 8 9 9 9 9 9 9 9 9 9 9 9 8 8 9 8 8 8 8 7 7 7 6 5 4 4 7 6 5 5 5 1 4 3 3 2 2 1 2 3 3 2 3 5 5 5 6 6 6 4
6 8 8 9 11 11 11 11 12 14 13 14 14 12 12 12 12 12 11 12 11 12 11 12 10 10 10 8 9 7 6 7 7 6 6 7 9 9 9 8 9 9 9 9 9 9 10 9 9 8 8 8 7 8 7 8 8 9 8 8 5 3 4 3 5 7 5 1 1 1 3 1 2 1 1 1 1 2 3 5 5 5 7 6 6
11 11 12 12 11 12 11 11 13 11 11 11 12 14 12 12 12 13 12 12 11 12 12 11 10 8 7 5 5 7 6 5 5 5 5 7 10 9 9 10 9 10 10 10 9 9 9 10 8 7 8 7 9 9 9 10 8 8 8 8 6 5 3 5 5 6 5 5 2 4 2 1 3 5 3 1 2 2 3 5 4 5 5 4 5
13 12 10 9 10 12 14 15 12 12 13 13 14 14 12 15 14 14 12 12 11 11 12 9 7 5 5 2 1 3 1 4 6 8 9 9 8 9 12 9 10 10 10 11 10 10 9 9 8 9 9 8 8 9 10 10 9 9 9 8 8 8 6 4 4 5 5 6 6 2 2 1 4 2 2 4 1 2 3 2 4 4 5 6 6
16 16 14 14 14 13 12 12 12 12 14 14 14 15 13 12 12 12 11 10 12 12 12 10 9 10 8 8 8 8 9 9 12 14 11 11 13 9 7 9 10 9 9 10 10 9 10 10 9 9 9 9 9 9 9 7 8 8 8 9 9 8 7 4 4 3 5 6 5 4 6 4 2 2 2 4 2 0 1 1 2 3 4 5 4
10 10 12 12 12 12 13 13 14 14 15 13 12 12 13 12 12 13 12 11 11 11 11 10 9 9 12 13 12 12 12 11 10 8 8 9 7 8 8 7 9 10 9 9 9 10 10 10 10 10 10 9 8 8 9 9 8 7 6 7 9 8 5 6 7 6 3 5 5 5 2 1 4 5 5 2 1 1 0 1 2 1 2 4 4
12 12 11 12 13 15 16 17 15 17 16 11 11 11 14 15 13 13 11 11 10 10 11 12 12 11 12 12 11 12 13 14 9 9 6 5 7 9 7 8 8 9 9 9 10 10 10 10 10 9 9 9 8 8 9 8 6 5 7 8 7 7 9 10 8 6 9 6 6 7 6 3 2 2 4 6 4 3 3 0 0 1 1 3 3
13 12 13 13 13 14 14 14 16 16 12 11 13 14 13 11 11 10 12 11 10 11 12 13 13 12 12 10 12 12 12 11 5 4 5 4 7 6 8 8 8 8 9 9 9 9 9 10 9 9 9 9 7 8 7 7 9 8 8 7 8 8 8 9 8 9 8 8 5 6 7 8 5 5 3 3 3 3 3 5 3 1 1 3 4
10 13 12 12 13 13 13 12 11 13 12 12 11 9 9 9 11 11 13 11 10 11 13 14 13 11 11 13 15 13 10 8 5 7 6 5 8 7 6 7 8 8 8 8 8 8 8 9 9 11 10 9 8 9 8 9 9 9 9 9 9 10 8 9 10 9 9 9 9 8 7 5 4 4 3 4 1 3 6 5 6 7 6 7 6
10 11 11 10 8 9 8 11 12 9 6 6 7 8 8 9 10 12 14 11 10 12 13 14 13 12 13 14 15 15 12 9 8 10 7 6 9 8 7 7 6 8 6 8 8 7 8 7 8 9 9 8 8 8 9 9 9 9 9 9 10 11 9 10 9 9 8 9 9 8 9 9 9 9 8 7 7 3 2 4 5 9 12 8 8
10 10 11 10 7 7 6 8 8 7 6 7 8 7 7 9 10 13 12 11 11 11 11 13 12 14 14 14 15 15 12 11 12 12 10 10 9 8 6 5 7 6 7 7 8 7 8 8 7 7 8 8 9 8 8 8 8 8 8 8 9 11 10 9 9 9 9 8 10 8 8 8 8 9 8 9 9 8 9 8 8 4 2 5 2
9 9 9 8 10 11 10 10 8 7 10 11 12 11 10 9 11 13 14 12 12 11 13 13 12 14 14 15 14 11 11 12 11 10 8 9 8 7 6 8 7 8 8 8 8 8 8 9 8 9 9 9 9 9 9 8 8 7 7 8 9 9 8 9 8 10 11 10 10 9 9 8 9 9 7 8 8 6 6 5 4 3 7 5 4
9 10 9 10 10 10 11 12 12 11 10 11 11 11 10 11 11 12 16 11 9 9 12 12 14 15 13 13 12 9 10 10 10 9 8 8 7 9 9 8 8 10 8 10 8 9 9 10 9 9 9 9 9 10 9 8 8 8 7 8 9 10 9 11 12 12 11 12 10 8 9 8 9 7 8 8 8 7 6 8 6 4 2 5 0
7 8 10 11 11 11 11 11 11 10 10 11 10 11 9 10 10 13 13 9 10 12 10 13 13 13 11 11 10 8 9 9 9 8 8 8 7 8 8 7 9 8 8 8 7 9 10 9 9 10 9 9 9 8 9 9 10 9 9 10 9 8 10 11 12 13 12 10 10 10 8 8 9 8 8 9 8 10 9 9 9 7 4 3 4
5 6 7 7 7 6 6 6 8 8 9 9 9 9 9 11 11 13 14 12 11 11 12 13 13 9 8 9 9 8 7 7 7 6 7 7 8 9 9 9 8 7 6 6 8 8 8 8 9 10 9 8 9 9 9 9 9 9 8 8 10 9 11 12 10 11 14 15 12 11 10 12 12 11 11 10 9 10 9 7 9 10 11 5 3
4 6 7 7 5 6 7 8 9 9 8 10 12 11 13 12 11 12 12 8 10 11 12 10 7 5 7 7 7 7 8 10 11 9 9 7 8 8 8 9 7 6 7 7 7 7 7 8 8 8 9 9 8 9 8 8 7 7 6 6 8 6 6 7 8 9 10 9 10 13 12 9 7 6 7 8 9 8 9 9 11 12 10 9 8
3 4 5 5 5 6 7 7 7 9 10 9 8 6 6 7 8 10 8 9 9 8 7 5 5 6 6 7 8 10 10 10 9 8 7 7 7 6 6 6 6 7 7 6 6 6 6 7 7 8 8 8 9 8 8 8 7 8 10 10 10 9 9 9 8 8 8 9 10 9 8 8 8 8 10 9 9 10 9 10 9 9 8 11 9
5 6 6 6 7 8 8 9 7 4 3 4 3 3 4 4 5 6 9 8 6 4 4 5 6 7 8 10 9 8 7 7 7 6 6 7 8 7 7 7 6 5 5 6 6 6 7 7 8 8 8 9 9 9 9 8 7 7 6 7 7 7 8 10 9 10 12 9 7 10 8 8 6 8 7 7 8 9 10 9 10 10 10 12 10
7 7 8 8 8 8 8 6 5 4 3 3 4 4 6 6 6 6 5 5 5 6 7 8 9 8 6 4 5 6 6 6 5 6 6 7 7 6 6 5 7 5 5 6 6 7 7 7 7 8 8 8 9 9 9 10 8 7 6 5 5 6 7 7 7 5 4 5 5 4 5 6 7 6 8 9 6 4 5 8 9 8 8 7 6
8 8 8 8 8 7 4 1 0 1 1 2 4 5 5 4 5 4 6 5 6 7 6 7 4 5 5 6 6 5 4 3 4 4 5 5 4 4 5 5 3 5 5 5 6 7 7 7 8 8 8 8 8 8 7 6 8 8 7 7 6 5 7 8 8 8 6 6 8 8 9 9 6 8 5 3 5 7 6 6 5 4 5 4 5
7 6 6 6 5 4 0 1 1 2 2 3 2 1 2 3 2 2 2 4 5 5 5 4 4 4 5 4 4 3 4 4 5 3 4 3 2 3 2 3 4 3 3 6 6 6 5 6 6 7 7 8 7 8 9 9 7 6 6 5 5 5 6 6 4 5 4 5 6 8 7 7 6 6 6 7 8 7 7 7 5 6 6 5 5
7 6 5 5 3 2 2 3 4 5 4 3 3 3 4 3 2 3 4 5 4 4 3 4 4 4 4 4 4 4 4 4 5 4 4 3 2 2 2 2 2 2 2 3 4 4 5 5 4 5 5 5 5 4 3 3 4 5 6 6 6 6 7 8 7 8 9 7 6 7 8 5 5 7 7 7 5 6 5 6 5 4 6 8 8
5 4 4 4 2 1 2 4 4 3 3 4 4 4 3 3 4 4 5 5 3 2 3 4 4 4 4 5 5 3 4 3 4 3 3 2 2 1 1 2 2 1 1 1 1 2 2 2 3 3 4 4 4 4 4 4 5 4 5 7 6 6 7 8 8 8 7 6 8 7 7 6 6 8 6 6 5 3 5 6 6 6 6 7 7
5 5 4 2 2 4 4 4 4 4 4 4 4 4 4 5 4 5 5 4 3 3 4 4 5 5 3 4 4 3 3 3 3 3 3 3 3 2 2 1 1 1 1 1 0 1 0 0 2 3 3 3 3 3 3 3 3 3 3 4 4 4 5 5 6 7 6 7 7 8 7 5 6 7 6 6 6 6 5 7 6 6 7 7 5
5 4 3 5 4 3 3 5 4 5 6 5 5 5 5 4 6 5 5 4 4 3 4 5 4 6 4 4 3 3 3 3 3 3 4 3 2 2 2 1 0 0 0 1 1 1 0 1 1 3 3 3 3 3 2 3 3 3 3 4 4 4 5 5 5 4 4 5 7 8 7 8 9 10 9 8 8 9 7 7 9 7 7 5 7
5 5 4 3 5 7 5 5 7 6 6 6 6 6 5 5 5 5 5 5 5 5 4 5 4 5 4 4 4 4 4 4 4 3 2 1 1 0 0 0 1 1 1 0 0 0 0 1 1 1 2 2 2 1 2 3 3 3 4 4 4 4 5 4 4 4 4 4 5 4 3 4 6 8 8 9 8 6 6 6 6 5 6 6 6
4 4 6 8 8 5 6 8 7 8 6 5 5 6 6 7 8 6 6 5 6 6 5 5 5 5 5 5 5 4 4 3 2 1 1 1 0 0 1 1 1 0 0 0 1 2 1 0 0 1 1 1 1 1 3 3 3 3 3 4 4 4 4 4 4 4 4 4 4 3 3 4 5 4 2 2 5 8 6 8 6 6 7 7 7
5 8 7 8 9 7 7 7 8 6 7 7 6 6 5 5 5 5 6 8 6 7 6 6 5 6 6 5 4 3 2 1 0 1 1 3 2 1 2 2 2 2 1 2 2 2 2 1 0 0 0 0 1 2 1 1 2 3 2 3 3 3 4 4 4 4 3 3 3 4 4 4 5 7 9 9 9 8 9 9 8 8 8 8 7
9 9 9 8 8 6 7 7 7 8 8 7 7 8 9 9 9 7 8 7 7 8 8 7 8 7 5 4 4 4 3 4 4 4 4 3 3 3 2 2 1 1 1 1 1 1 1 1 1 1 1 1 1 2 3 3 3 3 3 3 3 4 4 4 4 5 4 4 4 4 4 8 9 10 11 12 12 13 13 11 9 10 10 9 10
9 7 8 9 6 6 6 7 9 9 10 10 10 9 7 7 7 8 9 8 7 8 8 8 9 6 6 5 5 5 4 5 5 4 4 4 3 3 3 3 2 2 1 1 1 1 1 0 1 1 0 0 0 1 2 2 4 5 4 4 5 5 4 4 4 5 6 5 5 5 4 5 7 7 8 10 11 13 14 13 11 13 13 14 12
10 10 9 8 7 8 9 11 11 11 11 10 10 9 7 11 9 10 9 7 8 8 9 9 7 6 7 7 6 6 5 5 4 4 5 4 4 4 4 3 3 3 3 2 2 2 1 1 1 0 1 1 1 3 3 4 5 6 7 5 4 4 4 4 4 5 5 5 5 4 3 3 4 5 4 5 8 12 12 12 11 13 14 13 10
11 11 11 10 10 11 12 12 10 12 12 13 11 9 11 12 11 10 7 9 10 9 9 8 7 8 8 7 6 7 6 5 5 5 4 5 4 4 4 4 5 3 3 4 3 2 2 2 2 2 1 1 1 2 3 4 5 6 7 6 3 4 5 4 4 5 5 4 4 4 4 4 3 5 5 6 6 6 9 11 11 12 14 14 11
9 9 9 10 7 8 9 12 14 14 14 11 11 14 14 9 7 6 10 10 10 9 8 8 7 8 7 7 7 7 6 6 5 5 5 5 5 6 4 3 3 4 4 4 3 3 3 3 3 2 1 0 1 2 2 3 4 5 5 4 2 3 3 4 5 4 3 4 5 6 5 4 3 4 5 5 4 5 6 6 6 5 6 8 10
11 9 10 11 11 11 12 11 11 10 8 7 8 9 3 5 7 9 7 9 9 8 8 8 8 8 7 8 8 7 7 6 6 6 6 6 6 5 4 4 5 4 4 5 4 4 3 2 1 1 2 1 1 2 3 4 4 4 4 3 2 2 2 3 3 3 4 5 5 4 3 4 3 4 5 5 6 6 5 6 5 5 6 5 5
13 12 14 14 12 15 16 15 12 8 7 9 12 9 7 6 6 7 7 7 8 8 8 7 8 9 9 9 9 8 7 7 7 7 7 6 5 6 6 4 3 2 2 2 1 1 2 2 1 1 2 1 1 2 3 3 4 4 5 3 2 2 2 3 3 2 2 2 1 2 2 3 3 5 4 7 7 5 5 6 6 5 3 3 4
14 13 17 16 16 16 15 12 8 9 9 11 9 9 9 8 8 8 8 8 8 9 10 10 10 9 9 9 9 9 8 8 8 8 7 7 6 6 4 4 4 4 4 4 4 3 2 2 2 2 2 2 2 3 3 3 3 4 4 2 1 1 1 2 3 2 2 1 1 2 2 3 3 4 5 8 8 5 3 4 5 4 3 3 7
15 16 14 12 9 9 7 8 8 7 10 9 8 10 10 9 8 7 9 8 9 11 10 10 11 10 10 10 9 10 10 10 9 9 9 7 6 5 6 5 6 6 5 5 3 2 2 2 2 2 3 3 2 3 3 3 3 4 5 4 3 2 1 2 3 2 1 2 3 5 5 4 5 6 7 9 8 6 4 5 4 5 5 6 7
18 19 16 12 12 13 12 8 6 9 11 7 7 9 10 11 9 9 9 9 11 11 11 13 12 10 10 10 10 10 10 10 10 9 8 8 8 7 5 5 4 5 5 4 3 3 2 2 2 2 3 3 2 3 3 4 5 5 5 4 4 4 4 4 3 3 3 3 3 4 8 8 7 6 9 10 11 8 6 6 6 4 6 8 8
18 17 13 10 7 5 5 8 11 14 13 10 9 10 11 12 10 8 9 11 14 14 11 8 8 10 10 10 9 10 9 10 10 8 7 7 6 6 6 7 5 4 4 4 3 2 3 2 1 1 2 3 2 3 3 4 4 5 6 5 4 5 5 5 4 4 3 3 4 4 5 9 10 9 10 12 12 12 8 5 4 6 7 11 1
18 19 11 6 7 11 14 16 16 15 8 9 9 10 11 10 9 10 12 16 12 7 9 10 9 9 10 10 9 10 11 9 8 8 7 6 6 7 6 6 6 4 4 4 3 3 3 2 1 2 2 2 2 3 3 4 4 4 6 6 4 5 4 4 4 5 4 4 4 3 3 6 10 10 10 11 12 14 11 7 6 8 9 3 4
10 7 4 6 5 7 8 7 6 5 6 8 10 11 12 9 9 13 18 11 8 9 9 10 11 11 10 10 9 8 8 7 7 7 7 6 5 5 6 6 4 5 6 5 4 3 3 2 1 2 2 2 2 3 2 3 4 4 5 6 4 4 4 4 3 4 3 4 4 4 3 5 9 11 11 12 14 14 15 8 8 11 9 8 3
13 9 6 7 8 10 11 12 8 6 7 9 10 12 10 11 13 19 10 8 9 10 11 11 11 11 10 9 9 9 8 7 7 7 8 7 6 6 5 5 6 5 6 5 5 4 4 3 2 1 1 1 1 1 2 2 3 3 4 5 6 4 5 3 4 4 4 5 2 3 3 4 8 10 11 12 13 14 11 7 10 12 11 10 5
8 8 7 6 8 8 9 8 5 6 8 10 13 13 12 13 18 6 8 8 9 9 10 10 10 10 9 9 8 8 7 6 8 7 7 7 7 6 5 5 5 5 5 5 4 4 4 3 2 1 1 1 1 1 2 2 3 3 5 5 6 6 5 4 3 4 3 3 3 4 4 6 7 9 10 11 12 11 6 9 11 11 11 7 4
8 9 5 6 10 11 11 9 7 8 8 9 10 14 14 16 10 9 10 12 11 11 11 11 10 10 10 9 8 8 8 7 8 8 8 8 8 7 7 5 6 5 6 5 5 4 4 4 3 2 1 1 1 2 2 2 4 4 5 5 6 6 7 5 3 3 2 3 4 6 6 6 7 8 10 9 7 8 11 11 11 10 8 5 5
6 7 8 10 9 8 8 11 9 8 9 9 10 9 13 15 7 9 10 11 12 13 12 11 10 10 10 10 10 8 8 8 8 7 7 6 8 8 7 6 6 6 6 6 6 5 4 4 3 1 0 2 2 2 3 2 3 3 4 5 5 5 5 5 4 4 5 5 5 6 6 6 6 6 4 3 4 5 6 9 10 9 4 5 5
10 13 8 6 7 8 9 10 11 7 7 7 9 9 9 4 10 9 10 11 12 12 11 10 11 10 9 10 11 9 8 8 8 6 6 7 7 7 7 7 6 6 6 6 6 6 5 4 4 3 2 1 2 2 3 3 3 3 3 3 3 3 5 4 3 3 2 2 2 2 2 4 3 5 6 5 5 4 4 5 4 4 4 5 6
6 5 5 6 6 9 10 9 10 8 8 8 8 8 5 6 7 9 10 11 11 12 12 11 11 10 10 10 10 10 10 8 8 8 8 8 7 7 7 7 8 7 7 7 6 6 6 7 7 5 2 0 2 2 3 3 4 2 3 2 1 2 3 2 3 4 1 1 1 2 3 2 2 2 2 2 3 2 4 4 5 4 5 4 5
6 6 6 10 10 10 11 10 11 7 7 7 7 5 5 8 9 9 11 12 11 10 9 10 10 9 9 8 8 9 9 8 8 7 5 4 7 6 6 4 2 2 4 5 5 6 6 5 6 5 4 1 1 1 3 3 3 3 2 2 2 4 3 3 5 4 0 1 1 1 1 2 1 1 3 3 3 3 4 4 4 5 4 3 3
5 3 5 6 7 8 8 9 6 5 7 8 7 6 6 7 9 10 11 13 12 10 10 10 9 9 8 9 8 8 7 8 7 7 7 4 5 5 5 6 3 2 4 6 7 5 6 5 4 3 3 3 2 1 4 4 4 3 5 6 6 6 6 5 5 5 3 1 0 1 1 1 2 2 4 4 5 4 5 5 5 5 5 4 4
5 5 6 8 7 5 5 6 6 4 5 5 5 5 6 7 8 9 11 12 13 11 9 9 9 9 9 9 9 8 8 7 7 7 6 7 6 4 4 4 6 5 5 4 4 6 7 7 6 2 1 3 3 2 2 2 3 4 4 5 6 7 7 7 6 1 1 1 2 2 3 1 1 2 3 5 5 4 5 5 5 5 5 5 5
Wind_Direction
222 205 203 205 202 200 201 197 201 201 201 198 194 199 197 194 188 200 194 186 185 187 188 189 193 201 210 211 214 209 211 212 217 216 215 218 215 216 216 214 211 209 211 208 209 209 214 215 214 213 202 201 204 211 208 209 209 205 210 206 213 228 245 219 217 164 156 277 328 306 314 297 261 206 238 191 171 170 149 155 151 153 160 156 172
173 192 212 208 206 204 198 199 198 198 207 199 202 201 198 194 196 198 188 192 195 192 190 194 198 198 196 206 206 206 206 209 218 215 217 218 217 216 216 216 215 213 213 214 214 211 213 215 216 217 208 210 214 217 215 212 208 209 198 222 222 211 228 198 196 134 212 210 240 293 312 322 319 242 230 231 164 158 166 155 161 164 168 170 159
203 216 205 204 206 202 197 203 204 204 199 202 206 198 198 199 202 195 194 193 198 196 192 200 201 203 200 204 201 213 221 221 228 225 219 221 222 220 217 215 214 215 213 215 216 216 217 216 219 217 215 210 214 223 218 218 210 207 199 202 220 247 236 220 184 190 199 137 116 69 293 279 314 309 325 217 171 198 164 163 169 167 172 170 165
216 210 210 208 201 201 201 204 207 202 203 205 204 203 200 203 202 198 197 197 197 200 201 204 201 203 208 196 200 201 199 208 221 234 223 221 227 219 221 215 210 214 212 211 216 217 215 218 218 218 220 210 213 219 218 222 211 212 206 209 191 215 216 238 205 204 159 127 267 214 235 121 309 255 203 248 137 205 208 182 169 173 162 147 151
216 216 218 207 204 204 202 206 200 201 204 205 203 203 203 203 202 198 197 198 200 198 200 196 187 189 191 174 148 206 230 190 205 229 223 220 223 218 222 211 212 214 211 212 212 217 215 216 216 217 218 216 212 221 222 220 214 211 205 202 200 210 221 221 225 208 211 195 153 84 8 356 228 260 159 260 98 188 251 224 194 161 165 169 170
209 210 208 204 203 206 207 206 199 206 208 210 204 205 203 204 199 199 201 199 201 199 195 188 191 191 183 195 208 211 219 209 213 217 213 215 219 221 219 210 214 216 213 213 214 214 216 214 215 216 218 218 214 222 227 222 217 212 208 204 209 211 206 193 237 236 219 227 210 182 158 180 203 256 128 261 19 186 325 329 272 217 170 170 174
236 225 210 203 207 202 205 203 205 206 213 208 203 205 205 205 201 198 200 202 201 197 186 187 193 197 199 204 209 212 221 228 225 225 220 224 223 221 221 214 215 216 217 213 214 213 217 217 215 217 220 220 218 222 227 224 219 215 202 204 212 203 187 210 208 210 213 250 239 245 250 116 144 127 208 71 287 287 59 191 268 294 212 178 182
215 217 214 211 204 198 202 205 203 210 211 198 201 203 205 206 200 201 202 202 199 190 187 190 196 199 204 210 213 219 220 230 217 226 224 216 216 224 220 222 217 219 220 218 216 214 214 220 217 220 221 223 216 221 227 227 223 216 205 210 212 202 201 213 211 191 194 218 199 231 245 207 165 120 150 172 169 178 241 265 351 99 277 249 214
209 216 215 210 209 210 209 206 209 211 206 197 203 204 205 204 202 202 205 202 197 190 190 196 201 200 204 207 217 225 227 236 222 221 220 210 226 218 220 223 222 222 222 220 217 217 214 219 218 221 223 225 216 226 227 223 221 217 210 207 210 212 207 213 206 202 200 214 182 224 223 231 212 207 163 131 153 163 246 193 223 1 150 246 238
216 220 220 214 212 213 212 213 212 213 207 204 207 201 202 200 203 201 209 202 195 192 195 199 201 200 206 210 218 225 222 232 208 225 221 208 228 222 220 221 222 227 226 225 223 219 220 219 222 224 225 224 218 226 225 224 223 221 217 215 215 219 211 206 209 206 204 210 199 197 199 211 213 209 181 159 160 191 188 202 203 188 205 233 199
215 220 222 221 218 219 212 212 215 214 211 207 210 204 202 198 202 206 213 203 193 196 194 201 199 202 212 213 218 224 218 217 221 231 220 216 228 227 220 224 222 228 228 232 230 226 228 224 223 229 229 224 222 226 228 226 223 221 219 215 216 218 213 208 215 219 209 210 206 198 203 196 202 205 205 189 188 178 158 209 203 200 203 205 215
217 217 224 220 219 223 211 225 223 215 196 199 206 206 204 205 202 210 214 206 202 199 195 203 200 207 214 215 219 221 213 213 219 226 215 223 224 228 220 222 226 225 225 232 235 229 235 236 231 230 231 227 227 227 231 229 229 223 219 215 217 216 217 215 219 223 219 218 216 208 208 209 207 210 202 189 191 201 197 210 200 188 260 238 279
214 218 220 218 212 209 209 217 213 207 202 203 204 200 205 207 206 209 217 208 206 199 202 202 203 211 212 215 222 218 215 218 221 225 215 219 218 222 213 223 222 226 221 227 229 223 227 234 231 229 230 229 232 230 232 230 229 226 221 219 218 219 225 225 223 222 214 211 216 213 213 208 208 211 189 187 199 188 180 191 236 170 201 210 220
214 212 213 213 210 211 209 210 208 207 206 205 205 202 202 203 206 211 223 206 206 202 206 205 211 214 213 216 220 212 218 217 221 221 213 213 210 218 217 219 222 225 222 225 220 219 223 225 226 229 230 230 231 233 231 227 226 226 221 221 220 223 221 220 221 220 216 217 216 216 207 206 217 202 196 182 183 165 185 194 192 213 220 221 269
223 216 214 213 213 207 206 208 210 209 207 207 206 206 200 204 201 210 224 209 203 208 207 211 217 217 215 217 219 212 219 215 222 218 213 211 212 217 222 219 223 225 221 225 215 216 220 221 221 226 227 227 227 229 229 225 218 219 221 224 227 230 225 219 218 216 217 216 216 212 212 213 214 201 191 194 184 193 190 191 171 192 233 209 217
221 226 234 235 227 219 218 218 219 216 211 208 207 201 200 206 203 210 214 207 203 206 211 213 219 214 213 214 216 212 215 215 224 218 220 212 215 214 223 221 223 226 223 216 220 215 216 215 215 221 223 224 222 223 223 222 217 218 225 237 241 226 216 214 220 219 223 217 210 211 212 218 214 204 196 192 187 195 199 186 187 192 183 215 232
229 222 225 231 227 222 213 210 213 215 211 208 205 198 199 200 202 210 216 205 204 208 211 213 213 201 213 210 208 207 209 215 219 218 216 213 217 218 222 224 223 220 225 216 221 214 214 210 213 216 217 217 218 218 219 217 212 213 219 232 243 236 238 232 225 225 227 210 213 215 217 221 215 204 197 200 198 194 199 190 189 186 178 190 196
260 268 261 249 238 228 220 220 215 209 210 211 212 207 210 207 204 208 207 204 211 205 208 196 191 202 208 210 212 210 212 217 216 218 209 212 220 222 224 230 222 219 217 222 216 216 214 213 214 217 218 217 219 220 217 218 215 219 224 231 235 231 231 236 235 230 227 223 225 216 205 204 203 193 209 209 194 198 198 195 190 200 187 203 202
269 252 247 245 233 231 223 222 221 219 226 221 201 177 181 194 198 199 209 211 196 179 175 188 194 205 206 210 209 210 212 212 211 210 202 209 216 215 218 222 225 217 214 218 217 216 215 215 214 219 218 219 220 221 220 224 225 233 234 234 227 226 231 232 228 216 221 213 199 207 204 209 185 199 208 216 215 200 201 190 196 192 196 212 205
235 236 236 233 233 230 227 229 229 221 201 189 180 175 191 194 187 202 204 186 179 187 189 201 209 206 211 203 211 207 208 207 202 195 204 208 214 215 219 222 220 210 212 211 211 216 216 218 219 220 220 220 219 219 215 221 224 236 245 247 227 208 215 234 247 251 236 218 202 201 194 203 205 204 213 217 207 198 187 200 205 196 204 220 209
224 223 227 230 233 238 244 284 154 99 117 143 166 182 193 183 196 196 192 190 194 209 200 220 193 204 193 202 205 196 183 159 166 181 192 203 208 202 209 216 200 216 204 204 207 213 214 215 216 217 216 218 219 220 213 219 229 229 222 222 236 236 234 232 218 220 209 199 202 207 207 211 195 204 197 155 177 196 194 209 207 187 196 196 184
225 227 223 232 242 266 340 64 70 131 162 178 185 162 191 201 207 168 158 185 193 209 201 206 197 187 188 174 157 141 143 141 138 137 139 145 148 168 174 157 185 220 192 200 204 210 212 214 217 221 220 223 224 219 219 220 219 225 234 233 238 235 237 237 243 268 260 236 211 211 214 209 189 190 169 190 192 184 183 185 186 182 188 188 206
228 230 232 237 241 228 204 185 189 193 204 200 209 198 212 215 197 196 181 216 195 198 189 177 166 154 159 158 141 144 137 139 134 140 139 152 157 170 177 168 202 238 239 204 201 201 207 205 218 236 241 238 239 254 275 239 232 228 240 243 226 224 228 234 224 222 219 214 216 215 219 188 169 185 193 194 177 186 173 182 195 186 197 207 199
251 260 266 256 249 241 175 203 212 221 211 219 218 219 219 217 213 205 206 213 202 165 153 144 148 151 154 138 142 141 125 140 148 158 142 141 132 115 171 173 191 206 203 264 206 195 188 193 209 233 242 242 254 252 254 237 236 238 245 247 240 227 228 230 226 227 219 200 212 214 219 193 183 192 191 187 191 176 187 197 197 196 210 210 205
250 242 243 266 243 216 219 218 222 222 229 227 224 220 213 218 210 211 216 206 193 174 156 163 153 151 152 151 141 132 132 140 146 165 159 159 133 118 97 122 137 151 189 159 18 33 91 325 235 248 261 266 263 262 263 271 273 269 265 269 265 257 252 247 239 231 214 205 209 214 214 188 190 197 190 181 172 189 192 182 193 195 202 205 202
228 253 263 238 234 234 227 225 226 222 217 217 219 220 218 217 217 205 195 189 212 169 158 141 157 158 167 169 171 141 141 146 156 161 160 148 113 89 88 63 94 126 48 40 72 62 119 259 247 242 237 236 234 238 243 258 273 272 258 258 256 248 242 239 243 242 228 218 217 220 216 192 191 197 197 188 182 195 185 195 201 196 195 182 200
230 236 255 292 268 234 223 225 220 221 218 217 212 214 216 214 222 216 201 190 189 170 159 167 166 171 163 180 175 164 154 154 152 151 144 114 64 77 63 44 63 90 93 130 164 145 162 181 214 205 235 247 278 272 252 258 259 254 243 243 245 238 237 234 231 221 215 211 219 225 212 191 205 210 200 192 183 176 185 202 199 188 183 188 198
267 262 244 235 241 238 229 226 225 228 224 227 217 214 209 204 212 206 199 195 188 175 171 170 158 174 189 184 177 161 148 137 128 99 67 50 289 259 161 140 140 130 84 41 328 320 307 163 256 278 319 346 304 275 250 248 246 246 240 244 241 239 240 242 235 229 219 217 214 206 186 184 199 220 236 176 169 192 184 198 195 178 182 186 196
247 240 233 233 233 227 227 227 227 223 225 222 219 222 222 225 220 204 195 201 185 178 185 185 187 192 193 176 162 146 119 134 148 150 172 196 171 147 144 153 160 157 163 185 186 190 194 221 303 70 316 206 209 245 290 296 286 279 236 243 239 233 231 235 237 227 218 210 206 199 192 188 189 194 196 198 199 189 180 195 194 182 182 187 188
236 234 235 232 231 219 225 224 225 220 221 215 215 216 213 209 210 200 202 202 178 188 187 194 198 195 174 164 157 149 174 184 179 178 178 167 153 150 126 109 95 102 109 118 118 69 51 17 346 342 334 341 352 6 348 321 266 245 229 233 233 228 221 224 224 226 225 214 210 195 195 190 193 198 199 198 197 198 203 204 188 182 184 186 186
238 241 239 238 225 220 229 225 224 218 215 210 212 212 207 213 209 201 204 196 183 185 194 195 199 181 168 164 166 174 170 169 174 166 160 157 157 149 136 130 121 107 106 96 113 124 127 128 159 205 270 27 240 211 246 241 232 228 218 210 213 220 206 211 218 222 229 222 216 204 197 195 196 201 206 205 205 208 209 211 199 194 191 186 183
236 231 234 237 218 217 219 220 218 217 211 208 208 204 193 213 203 204 198 179 187 190 195 196 188 172 173 174 168 170 168 168 160 171 167 160 148 148 153 152 145 140 143 128 114 148 156 151 146 128 189 220 244 247 247 237 225 220 207 207 202 206 200 210 215 218 226 216 210 197 194 195 208 209 198 206 217 215 211 205 197 197 204 209 206
242 233 229 226 213 211 214 217 216 213 208 212 198 183 205 208 201 202 160 180 191 191 191 191 182 176 179 169 165 168 168 165 178 168 161 153 157 159 159 158 172 171 142 137 164 148 159 176 164 181 222 234 225 256 252 241 239 230 216 199 196 193 191 207 211 216 214 202 181 191 208 212 219 202 196 208 207 213 211 207 205 204 211 214 216
248 238 234 233 215 217 221 219 215 212 207 200 182 193 208 200 184 155 176 185 186 190 188 189 179 182 175 165 167 168 167 174 167 161 159 162 171 183 179 173 147 147 156 157 164 173 189 187 184 182 210 218 228 283 268 266 263 251 232 199 199 190 202 205 209 207 201 195 195 202 209 216 201 198 208 206 202 198 202 206 213 214 218 225 228
241 238 236 233 214 211 220 225 231 223 210 171 196 214 165 144 166 175 182 179 188 181 186 184 184 181 171 169 170 167 170 167 167 164 168 176 183 171 164 173 168 170 170 180 181 188 204 178 163 170 178 200 211 242 230 245 255 250 232 180 160 179 203 224 231 215 208 208 211 213 214 217 199 211 211 201 196 199 196 208 211 222 220 223 227
237 219 228 226 213 210 211 216 218 205 197 191 198 182 171 181 161 176 176 182 178 182 187 181 188 185 178 176 170 168 167 165 168 169 174 182 179 177 172 173 165 177 186 148 197 171 177 175 171 163 174 206 266 241 225 232 238 226 199 155 167 192 227 242 253 262 265 264 246 217 226 237 220 223 218 205 204 182 193 205 218 231 248 266 252
245 226 228 223 215 210 212 207 202 195 194 200 192 171 178 159 171 180 174 175 175 189 193 189 192 186 179 175 171 166 168 169 171 173 182 182 178 176 179 164 163 175 174 189 189 187 166 143 157 194 194 208 230 242 226 221 214 216 157 137 170 198 245 275 281 284 287 322 309 245 234 243 237 240 217 211 205 173 197 210 223 234 253 275 259
239 245 235 234 226 219 222 205 198 195 209 205 181 174 168 172 179 170 169 179 183 202 196 189 192 185 178 173 171 166 171 174 174 181 183 184 180 173 175 174 171 173 188 194 180 167 151 143 162 203 218 205 230 243 228 216 198 192 159 166 163 161 231 256 270 283 276 236 231 221 216 223 228 234 211 211 204 177 205 209 209 226 248 257 263
231 238 238 223 217 206 202 191 185 206 221 202 177 167 166 185 184 179 177 180 201 205 192 193 189 177 173 173 171 170 175 176 179 183 180 178 179 177 170 170 178 178 178 164 163 169 160 138 165 210 229 226 241 248 230 217 201 199 170 156 164 169 200 228 225 242 215 219 224 222 218 218 222 223 209 209 206 188 211 204 205 203 236 246 252
237 244 237 229 213 176 166 182 198 215 212 182 170 170 184 188 191 169 179 200 210 207 191 175 167 169 171 172 174 172 176 177 180 179 176 177 168 160 168 172 178 173 160 157 164 166 156 159 156 199 226 236 248 268 262 230 211 210 180 163 166 175 210 225 221 216 229 235 222 227 229 227 227 221 212 211 212 202 206 207 179 208 220 246 220
232 240 234 211 197 190 203 201 204 210 184 165 166 174 190 196 175 175 200 214 206 167 161 168 163 167 173 176 175 177 177 180 179 174 169 162 165 165 163 168 166 158 141 141 155 154 141 143 160 208 213 249 247 266 275 248 242 227 205 174 190 204 211 205 212 218 217 231 232 227 233 230 233 229 218 218 218 217 209 200 202 215 219 209 143
245 254 191 206 195 215 231 249 250 209 172 170 172 182 197 178 178 198 215 201 144 160 160 162 170 174 175 175 175 171 171 172 164 157 160 162 164 157 160 160 159 152 147 143 150 144 127 143 183 211 227 247 259 251 288 278 266 249 237 209 202 226 209 205 218 226 228 241 235 222 225 223 229 230 225 222 224 224 219 207 217 222 220 225 191
239 238 223 186 203 212 216 221 214 179 168 178 177 190 191 188 191 214 198 140 153 157 167 167 168 170 174 173 170 168 168 164 158 159 156 156 154 155 155 154 155 148 142 144 152 146 139 147 164 233 259 277 285 296 269 279 290 280 262 249 233 232 224 201 206 235 233 243 243 238 240 221 221 228 226 226 229 231 231 226 226 225 221 223 173
248 240 225 194 216 219 225 230 199 184 183 182 181 194 196 192 213 189 128 143 148 165 160 164 168 168 165 165 163 161 157 152 155 157 153 152 156 155 152 158 156 149 145 149 151 145 140 147 165 207 314 307 318 318 320 290 283 286 281 273 269 259 225 212 206 234 249 240 254 250 242 234 229 230 233 234 234 235 230 238 238 229 219 203 148
236 243 218 191 211 214 220 224 211 198 197 192 195 194 198 206 208 140 162 158 162 160 163 166 168 164 163 157 152 157 157 155 157 156 157 159 155 159 157 164 156 155 157 157 163 158 159 162 157 172 197 314 328 1 318 316 297 284 282 284 282 277 271 227 216 254 235 241 242 250 251 244 237 237 240 246 253 252 246 242 239 232 208 179 179
216 238 226 216 215 216 207 217 218 203 197 198 204 202 200 214 159 165 162 164 157 160 163 167 162 161 158 154 151 151 153 154 155 159 161 164 158 162 161 162 163 163 165 161 163 161 156 157 162 156 240 268 306 336 320 317 315 306 299 295 297 296 295 276 241 230 234 233 239 246 249 248 248 249 256 258 256 253 257 258 252 243 202 195 189
219 225 220 228 210 214 219 218 223 208 201 202 204 211 213 154 166 163 159 157 161 159 160 158 161 156 154 157 158 161 155 154 155 155 159 162 161 162 164 164 167 166 167 164 160 161 159 155 174 197 222 284 319 329 320 315 308 331 301 317 336 325 332 333 317 310 305 281 275 272 256 255 246 252 250 253 260 277 282 278 273 254 224 208 202
246 277 237 240 227 224 224 216 221 202 196 198 202 205 184 160 156 157 155 154 158 162 161 165 161 163 162 164 161 155 157 160 164 165 166 166 169 167 168 171 174 174 166 168 162 164 166 171 188 193 180 301 313 329 305 286 292 285 288 319 338 312 298 282 282 286 308 337 339 360 9 20 23 2 338 335 313 296 271 273 270 260 248 231 221
211 220 189 208 210 216 218 208 216 187 185 188 194 181 166 163 161 157 157 155 157 156 156 158 158 156 161 159 159 162 167 165 163 163 161 157 161 164 152 140 124 135 153 154 161 170 184 186 161 156 149 179 327 303 264 216 230 228 219 256 282 269 255 257 242 246 125 34 55 19 7 346 10 312 299 294 298 302 285 276 271 272 269 258 235
220 192 207 220 222 217 214 214 208 175 183 181 178 172 168 164 159 162 160 157 154 151 154 162 163 163 157 156 156 162 163 164 163 160 149 105 48 93 124 135 190 252 148 155 152 178 190 161 150 199 162 153 179 214 260 320 303 267 246 229 232 235 223 228 245 254 176 105 55 229 278 257 283 296 285 280 278 274 278 281 274 267 261 251 243
189 179 214 215 224 217 209 211 195 171 176 173 168 171 167 168 168 166 164 155 152 153 158 161 163 169 165 158 158 160 166 165 164 155 149 138 115 56 60 133 147 154 154 144 121 117 126 137 135 125 208 167 204 248 296 316 326 319 297 270 254 252 247 246 243 125 67 162 222 261 273 283 259 250 258 265 266 270 267 270 267 259 256 250 251